Temperature
18 18 18 18 18 18 18 18 18 18 18 18 18 18 18 18 18 18 18 18 18 18 18 18 18 18 18 18 18 18 18 18 18 18 18 18 18 18 18 18 18 18 18
18 18 18 18 18 18 18 18 18 18 18 18 18 18 18 18 18 18 18 18 18 18 18 18 18 18 18 18 18 18 18 18 18 18 18 18 18 18 18 18 18 18 18
18 18 18 18 18 18 18 18 18 18 18 18 18 17 17 17 17 17 17 17 17 17 17 18 18 18 18 18 18 18 18 18 18 18 18 17 18 18 18 18 18 18 18
17 18 18 18 18 18 18 18 18 18 17 17 17 17 17 17 17 17 17 17 17 17 17 17 17 17 17 17 18 18 18 18 18 17 17 17 17 18 18 18 18 18 18
17 18 18 18 18 18 18 18 17 17 17 17 17 17 17 17 17 17 17 17 17 17 17 17 17 17 17 17 17 17 18 17 17 17 17 17 17 18 18 18 18 18 18
17 18 18 18 18 17 17 17 17 17 17 17 17 17 17 17 16 16 16 16 16 16 17 17 17 17 17 17 17 17 17 17 17 17 17 17 17 17 18 18 18 18 18
17 17 17 17 17 17 17 17 17 17 17 17 17 17 16 16 16 16 16 16 16 16 16 16 17 17 17 17 17 17 17 17 17 17 17 17 17 17 18 18 18 18 18
17 17 17 17 17 17 17 17 17 17 17 17 17 16 16 16 16 16 16 16 16 16 16 16 16 17 17 17 17 17 17 17 17 17 17 17 17 17 18 18 17 18 18
18 18 17 17 17 17 17 17 17 17 17 17 16 16 16 16 16 16 16 16 16 16 16 16 16 16 17 17 17 17 17 17 17 17 17 17 17 17 17 17 17 17 18
18 18 17 17 17 17 17 17 17 17 17 17 16 16 16 16 16 16 16 16 16 16 16 16 16 16 17 17 17 17 17 17 17 17 17 17 17 17 17 17 17 17 17
18 18 18 17 17 17 17 17 17 17 17 17 17 16 16 16 16 16 16 16 16 16 16 16 16 16 16 17 17 17 17 17 17 17 17 17 17 17 17 17 17 17 17
18 18 18 18 17 17 17 17 17 17 17 17 17 17 17 16 16 16 16 16 16 16 16 16 16 16 16 17 17 17 17 17 17 17 17 17 17 17 17 17 17 17 17
18 18 18 18 18 18 17 17 17 17 17 17 17 17 16 16 16 16 16 16 16 16 16 16 16 16 17 17 17 17 17 17 17 17 17 17 17 17 17 17 17 17 17
18 18 18 18 18 18 18 18 17 17 17 17 17 17 16 16 16 16 16 16 16 16 16 16 16 16 17 17 17 17 17 17 17 16 16 16 17 17 17 17 17 17 17
18 18 18 18 18 18 18 18 17 17 17 17 16 17 16 16 16 16 16 16 16 16 16 16 16 16 16 16 17 17 17 17 16 16 16 16 16 17 17 17 17 17 17
19 18 18 18 18 18 18 18 17 17 17 16 16 17 16 16 16 16 16 16 16 16 16 16 16 16 16 16 16 16 16 16 16 16 16 16 16 16 16 17 17 17 17
19 19 18 18 18 18 18 17 17 17 17 16 16 16 16 16 16 16 15 15 15 15 15 16 16 16 16 16 16 16 16 16 16 16 16 16 16 16 16 16 16 17 17
19 19 18 18 18 18 17 17 17 17 16 16 16 16 16 16 15 15 15 15 15 15 15 15 16 15 16 16 16 16 16 16 16 16 16 16 16 16 16 16 16 16 16
19 19 18 18 18 17 17 17 17 17 16 16 16 16 16 15 15 15 15 15 15 15 15 15 15 15 15 16 16 16 16 16 16 16 16 16 16 16 16 16 16 16 16
19 19 18 18 18 17 17 17 17 16 16 16 15 15 15 15 15 15 15 15 15 15 15 15 15 15 15 15 16 16 16 16 16 16 16 16 16 16 16 16 16 16 16
19 19 18 18 17 17 17 17 17 16 16 16 15 15 15 15 15 15 15 15 15 15 15 15 15 15 15 15 16 16 16 16 16 16 16 16 16 16 16 16 16 16 16
19 18 18 18 17 17 17 17 16 16 16 16 15 15 15 15 15 15 15 15 15 15 15 15 15 15 15 15 15 16 16 16 16 16 16 16 16 15 15 15 16 16 16
19 18 18 18 17 17 17 17 16 16 16 16 15 15 15 15 15 15 15 15 15 14 15 15 15 15 15 15 15 15 15 15 15 16 16 16 15 15 15 15 15 15 15
18 18 18 18 17 17 17 17 17 16 16 16 15 15 15 15 15 15 15 15 15 15 15 14 14 15 15 15 15 15 15 15 15 15 15 15 15 15 15 15 15 15 15
18 18 18 18 17 17 17 17 17 16 16 16 16 15 15 15 15 15 15 15 15 15 15 14 14 14 14 15 15 15 15 15 15 15 15 15 15 15 15 15 15 15 15
18 18 18 18 17 17 17 17 17 16 16 16 16 16 15 15 15 15 15 15 15 15 15 14 14 14 14 14 15 15 15 15 15 15 15 15 15 15 15 15 15 15 15
Wind_Speed
8 11 12 13 13 13 13 13 13 13 13 12 12 12 12 12 12 11 11 11 11 11 11 11 10 10 9 9 9 8 8 7 7 6 6 6 6 6 6 7 6 6 6
11 13 13 14 13 14 14 14 14 14 14 13 13 12 12 11 11 11 11 11 11 10 10 10 10 9 9 8 8 8 7 6 6 5 4 4 5 7 7 7 7 6 6
12 14 14 14 14 14 14 14 14 14 14 13 13 13 12 11 11 11 11 10 10 10 10 10 9 9 8 8 8 7 6 6 6 6 5 3 5 7 7 7 7 7 6
13 14 14 14 15 15 15 15 14 14 14 14 13 13 12 11 11 11 10 10 10 9 9 9 9 8 8 7 7 7 6 7 7 7 4 6 6 7 7 7 6 6 5
14 15 15 16 16 15 15 15 14 14 14 14 13 12 12 11 10 10 9 9 9 9 9 9 8 8 8 7 7 7 7 8 9 6 5 9 8 7 7 6 6 6 5
14 16 16 16 16 16 15 14 14 14 13 13 12 12 11 11 10 9 9 9 9 8 8 8 8 7 7 7 6 7 7 9 9 4 7 8 8 7 7 6 6 6 5
13 15 16 16 16 15 14 14 14 13 12 11 11 10 10 9 8 8 8 8 8 8 8 7 7 6 6 6 6 6 8 9 6 3 6 8 8 7 7 6 6 6 6
13 14 15 16 15 15 14 13 12 12 11 9 9 8 7 6 6 6 6 7 7 7 7 6 6 5 5 4 5 6 7 9 6 4 7 8 8 7 7 6 6 6 6
12 12 13 14 14 14 13 12 11 9 8 7 5 4 3 4 4 4 5 5 6 6 5 5 4 3 3 3 4 5 7 9 7 4 5 7 7 7 6 6 6 6 6
10 10 11 12 13 12 11 11 10 8 7 5 4 3 3 3 3 4 4 5 4 4 3 3 2 3 3 4 5 6 7 7 4 3 6 7 7 6 6 6 6 5 6
9 8 8 9 10 11 10 10 10 8 8 7 6 6 5 5 6 5 6 4 2 1 1 2 4 5 6 6 7 7 6 3 1 3 7 8 8 7 6 5 5 5 5
7 7 7 7 6 6 6 8 7 7 6 5 3 3 1 2 4 5 6 4 3 3 3 5 6 7 8 7 7 6 4 3 0 4 7 9 8 7 6 5 5 5 5
8 6 6 6 5 5 4 4 2 4 4 5 6 6 6 7 3 4 3 4 4 4 3 4 6 6 5 2 1 2 2 1 3 6 8 9 7 6 5 4 5 5 4
7 5 4 4 4 5 4 2 2 3 4 5 6 7 6 3 3 3 3 3 2 2 2 3 3 3 4 3 2 1 3 3 5 7 7 8 7 5 5 5 5 5 5
7 5 4 3 4 4 3 1 5 4 4 6 5 5 6 2 2 3 3 4 4 5 3 3 3 4 4 6 6 5 4 4 5 6 6 7 6 6 5 5 5 5 5
7 6 4 4 4 4 4 3 3 4 5 6 4 5 7 6 4 3 3 3 3 4 4 3 3 3 2 3 4 5 5 4 4 4 5 6 6 5 5 4 4 4 5
7 6 4 4 5 6 5 4 4 5 7 5 5 8 9 9 7 4 3 3 4 6 6 5 4 4 3 3 3 3 3 4 3 4 3 5 6 5 4 4 4 4 4
6 7 5 5 6 6 5 3 3 6 5 5 7 9 10 10 9 6 4 3 6 7 4 3 3 3 4 3 3 3 2 3 4 3 3 4 5 5 4 5 4 4 4
6 7 6 6 6 6 4 3 4 5 5 6 9 9 10 10 9 7 3 4 8 5 4 5 5 4 3 3 2 1 2 2 3 4 3 4 5 5 5 5 5 4 4
6 6 7 6 6 5 3 4 3 4 4 6 6 7 8 9 10 7 4 6 6 4 5 4 4 4 3 3 4 3 1 1 2 3 3 4 5 5 4 4 5 4 4
5 6 7 6 6 5 3 3 3 3 3 4 5 8 8 9 9 6 4 4 4 4 5 5 4 4 4 3 2 3 2 2 3 2 2 3 3 4 4 4 5 5 4
6 5 6 7 6 5 3 3 3 2 3 4 3 6 8 8 8 7 4 3 4 3 5 5 4 4 4 4 3 2 2 3 4 2 2 2 3 3 3 5 5 5 5
6 5 6 6 6 5 3 3 3 3 2 3 3 3 4 5 6 7 5 4 3 3 3 4 4 4 4 4 4 3 2 1 2 2 3 2 3 3 2 3 5 6 6
6 6 5 6 6 4 4 4 3 3 2 3 3 2 2 4 5 5 4 4 3 3 3 3 4 3 3 3 3 2 1 1 1 2 3 3 3 3 3 3 4 5 6
6 5 5 5 4 4 5 4 2 3 3 3 3 2 3 3 3 3 3 3 4 3 4 4 4 4 3 3 3 3 3 2 2 1 2 3 3 3 3 2 3 4 4
6 5 5 5 5 4 4 5 4 5 4 4 3 2 2 2 2 3 4 4 3 3 3 3 3 3 3 4 3 3 3 3 3 2 2 2 2 2 2 2 2 2 3
Wind_Direction
95 96 96 97 95 94 93 90 88 86 86 86 84 82 80 79 76 73 70 68 66 63 61 58 55 53 51 48 46 43 41 36 32 33 40 45 45 47 48 37 39 55 68
106 102 97 98 96 96 93 89 87 87 86 84 83 84 81 79 77 73 69 67 65 62 59 56 51 49 47 44 43 38 33 24 12 8 20 36 52 58 57 49 44 51 61
104 102 98 97 95 94 92 90 88 87 85 83 82 83 81 78 75 72 69 65 62 60 55 52 48 46 43 41 37 31 21 8 355 346 344 43 77 66 60 53 48 50 56
102 99 98 99 96 94 92 90 88 87 85 82 81 80 78 75 72 70 67 63 60 57 54 49 45 43 41 37 31 23 11 356 344 337 7 58 67 68 58 52 46 45 49
98 98 101 99 98 97 95 94 92 89 86 82 78 77 75 72 69 66 62 59 56 54 52 46 43 40 38 34 28 16 2 347 337 340 49 65 69 67 54 49 45 43 42
102 102 103 101 99 96 95 94 93 90 87 83 79 75 72 68 64 60 57 55 52 49 49 46 42 40 36 30 22 8 352 341 332 1 64 71 74 65 52 44 41 41 41
108 108 108 105 101 98 96 94 92 89 84 80 77 73 68 66 63 57 55 52 48 46 47 46 43 40 36 26 17 1 345 335 322 4 70 74 74 63 51 43 42 40 38
112 113 115 112 109 105 101 96 94 91 86 82 79 75 74 73 70 63 58 49 45 41 43 44 40 34 27 15 3 351 338 331 341 17 84 82 75 64 55 47 46 42 41
117 120 123 125 120 115 112 110 107 105 102 99 97 102 104 102 99 86 68 53 47 39 37 35 30 15 358 340 329 326 325 326 330 340 71 83 75 66 58 53 51 46 49
121 126 129 129 130 130 130 131 130 133 135 140 156 186 191 181 157 129 103 73 52 33 22 8 347 319 303 292 292 298 307 314 319 6 69 79 74 69 63 59 54 51 59
116 121 126 130 131 138 145 145 158 165 177 181 197 217 223 211 169 147 109 110 87 10 322 297 291 284 277 269 268 278 293 285 319 67 77 80 76 71 64 62 57 57 61
119 119 119 124 128 128 118 147 171 159 167 182 166 130 250 62 75 106 136 163 197 234 255 262 269 274 264 254 247 255 271 267 98 85 89 88 81 72 65 63 57 57 61
110 104 115 123 124 122 119 125 131 117 113 62 36 71 46 30 35 96 156 185 215 230 256 258 255 262 259 250 214 212 254 24 68 82 95 93 86 75 64 60 62 62 63
108 105 101 107 115 109 95 101 79 71 70 59 29 41 62 30 14 31 45 17 15 21 5 337 310 328 345 356 1 355 29 51 72 92 102 99 96 85 71 65 66 69 70
121 116 107 101 99 107 98 70 82 63 53 68 28 36 57 39 25 26 45 24 15 23 8 347 357 9 10 5 7 22 30 39 68 90 107 111 108 95 81 73 73 74 73
115 115 105 103 94 89 86 80 83 99 86 66 18 38 56 48 44 24 38 18 12 16 2 4 16 9 11 18 9 15 15 26 55 97 120 123 118 106 94 86 89 87 79
122 115 104 97 89 81 71 56 73 72 76 65 31 30 51 49 42 31 21 12 10 19 17 7 16 6 7 25 16 10 29 19 16 70 103 134 130 123 113 107 107 104 90
118 115 109 91 89 82 77 49 61 66 62 65 49 30 38 47 45 32 10 8 19 18 10 359 20 16 8 10 7 5 28 29 14 38 54 96 118 120 124 127 122 123 108
116 117 109 87 88 85 92 82 57 75 63 62 53 37 28 34 41 39 14 16 25 17 4 9 24 15 6 355 350 24 37 47 5 30 32 56 82 94 105 130 134 134 125
121 118 108 101 94 100 88 83 66 58 64 70 65 49 31 29 33 34 26 25 26 17 8 13 19 12 3 351 3 18 43 85 46 38 28 38 56 73 85 108 130 127 128
122 111 114 113 95 81 63 71 75 71 68 67 62 50 37 36 22 26 27 22 23 24 13 14 15 11 357 358 17 1 8 58 62 69 43 35 38 56 66 76 89 102 120
122 119 121 107 96 90 81 90 92 84 86 87 66 56 44 38 22 21 30 24 23 20 17 12 21 10 355 8 21 28 16 6 3 54 68 66 45 41 47 62 72 83 93
124 114 111 108 107 110 111 87 84 69 55 87 90 71 54 45 33 22 21 18 15 33 24 4 23 23 2 355 26 49 50 14 328 357 32 56 57 37 25 53 64 66 74
123 125 129 120 118 121 111 98 109 110 93 83 86 94 92 63 55 24 13 14 22 33 24 8 37 11 13 357 356 15 42 79 67 348 350 17 35 48 42 45 47 57 65
125 120 115 112 110 102 101 103 82 79 88 87 82 74 79 64 53 29 10 27 30 27 26 20 26 24 22 14 6 359 3 359 0 63 348 346 8 23 37 49 61 59 61
120 109 104 101 90 93 116 118 98 82 76 81 67 51 64 76 32 33 22 33 43 35 29 8 21 34 32 15 11 19 19 16 8 19 356 349 359 335 15 45 55 64 63
Height
1521 1521 1522 1522 1523 1524 1526 1527 1528 1529 1529 1530 1531 1531 1532 1533 1533 1534 1534 1535 1535 1535 1535 1535 1536 1536 1536 1536 1537 1537 1537 1537 1538 1538 1538 1538 1538 1537 1538 1538 1539 1539 1539
1522 1522 1523 1524 1525 1526 1527 1528 1529 1530 1531 1532 1532 1533 1533 1534 1534 1535 1535 1536 1536 1536 1536 1536 1536 1536 1537 1537 1537 1537 1537 1538 1538 1538 1538 1538 1538 1537 1538 1538 1539 1539 1540
1523 1524 1525 1526 1527 1528 1529 1530 1531 1531 1532 1533 1533 1534 1534 1535 1535 1536 1536 1536 1537 1537 1537 1537 1537 1537 1537 1537 1537 1538 1538 1538 1539 1539 1539 1539 1538 1538 1538 1539 1539 1539 1539
1525 1526 1526 1527 1528 1529 1530 1531 1532 1533 1534 1534 1534 1535 1535 1536 1536 1537 1537 1537 1537 1537 1537 1537 1537 1537 1537 1538 1538 1538 1538 1539 1539 1540 1540 1540 1539 1539 1539 1539 1539 1539 1539
1526 1527 1528 1529 1530 1531 1532 1533 1533 1534 1535 1535 1536 1536 1536 1537 1537 1537 1538 1538 1538 1538 1538 1538 1538 1538 1538 1538 1538 1538 1539 1539 1540 1540 1540 1540 1540 1539 1539 1539 1538 1539 1539
1528 1529 1530 1531 1532 1533 1533 1534 1535 1536 1536 1537 1537 1537 1538 1538 1538 1538 1538 1538 1538 1538 1538 1538 1538 1538 1538 1538 1538 1538 1539 1539 1540 1540 1540 1540 1540 1539 1539 1538 1538 1538 1538
1530 1531 1532 1533 1534 1535 1535 1536 1537 1537 1537 1538 1538 1538 1538 1539 1539 1539 1539 1538 1538 1538 1538 1538 1538 1538 1538 1538 1538 1539 1539 1540 1540 1541 1540 1540 1540 1539 1539 1538 1538 1538 1537
1532 1533 1534 1535 1536 1536 1537 1538 1538 1538 1539 1539 1539 1540 1540 1540 1540 1539 1539 1539 1539 1539 1538 1538 1538 1538 1539 1539 1539 1539 1539 1540 1540 1541 1540 1540 1540 1539 1539 1539 1538 1538 1537
1534 1535 1536 1537 1537 1538 1539 1539 1540 1540 1540 1540 1541 1541 1541 1541 1541 1540 1540 1540 1539 1539 1539 1539 1539 1539 1539 1539 1539 1539 1540 1540 1540 1541 1540 1539 1539 1539 1539 1539 1539 1538 1538
1536 1537 1538 1539 1539 1540 1540 1541 1541 1542 1542 1542 1542 1542 1542 1542 1542 1541 1541 1540 1540 1539 1539 1539 1539 1539 1540 1540 1540 1540 1540 1540 1540 1540 1540 1539 1539 1539 1539 1539 1539 1539 1539
1539 1540 1541 1541 1542 1542 1542 1543 1543 1543 1543 1543 1543 1544 1544 1543 1543 1543 1543 1542 1541 1540 1540 1540 1540 1540 1540 1540 1540 1540 1540 1540 1540 1540 1540 1539 1538 1539 1539 1539 1540 1540 1540
1540 1542 1543 1543 1544 1544 1545 1545 1545 1545 1545 1545 1545 1545 1545 1546 1545 1545 1544 1543 1542 1542 1541 1541 1541 1541 1541 1541 1541 1541 1540 1540 1540 1540 1540 1540 1540 1539 1540 1540 1540 1540 1541
1541 1543 1544 1545 1546 1546 1546 1546 1547 1547 1547 1547 1547 1547 1546 1546 1546 1545 1545 1544 1543 1543 1542 1542 1542 1541 1542 1542 1542 1541 1541 1541 1541 1540 1540 1540 1540 1540 1540 1540 1540 1541 1541
1542 1544 1545 1546 1547 1547 1547 1548 1548 1548 1548 1548 1548 1548 1547 1547 1547 1546 1546 1545 1545 1544 1543 1543 1543 1542 1542 1542 1542 1542 1542 1541 1541 1541 1541 1541 1541 1541 1541 1541 1541 1541 1541
1543 1545 1546 1547 1548 1548 1549 1549 1549 1549 1549 1549 1549 1549 1548 1548 1547 1547 1546 1546 1545 1545 1544 1544 1543 1543 1543 1542 1542 1542 1542 1542 1542 1542 1541 1541 1541 1541 1541 1541 1541 1541 1542
1544 1546 1547 1548 1549 1549 1550 1550 1550 1550 1550 1550 1550 1550 1549 1549 1548 1547 1547 1546 1546 1545 1545 1544 1544 1543 1543 1543 1542 1542 1542 1542 1542 1542 1542 1542 1542 1542 1542 1542 1542 1542 1542
1546 1547 1548 1549 1550 1550 1550 1551 1551 1551 1551 1551 1551 1551 1550 1549 1549 1548 1547 1547 1547 1546 1545 1545 1544 1544 1544 1543 1543 1543 1543 1543 1543 1543 1543 1543 1542 1542 1542 1542 1542 1543 1543
1546 1548 1549 1550 1551 1551 1551 1552 1552 1552 1552 1552 1552 1551 1551 1550 1549 1548 1548 1548 1547 1546 1546 1545 1545 1544 1544 1544 1544 1544 1544 1543 1543 1544 1544 1544 1543 1543 1543 1543 1543 1543 1543
1547 1549 1550 1551 1551 1552 1552 1553 1553 1553 1553 1553 1552 1552 1551 1551 1550 1549 1549 1548 1548 1547 1546 1546 1545 1545 1545 1545 1544 1544 1544 1544 1544 1544 1544 1544 1544 1544 1544 1544 1544 1544 1544
1548 1549 1550 1551 1552 1553 1553 1554 1554 1554 1554 1554 1553 1553 1552 1552 1551 1550 1550 1549 1548 1548 1547 1547 1546 1546 1546 1545 1545 1545 1545 1545 1545 1545 1545 1545 1545 1545 1544 1544 1544 1544 1544
1549 1550 1551 1552 1553 1554 1554 1554 1555 1555 1555 1555 1554 1554 1553 1552 1552 1551 1551 1550 1549 1548 1548 1547 1547 1547 1547 1546 1546 1546 1546 1546 1546 1546 1546 1546 1545 1545 1545 1545 1545 1545 1544
1549 1551 1552 1553 1553 1554 1554 1555 1556 1556 1556 1555 1555 1555 1554 1553 1553 1552 1551 1551 1550 1550 1549 1549 1548 1548 1548 1547 1547 1546 1547 1548 1547 1547 1547 1546 1546 1546 1546 1546 1546 1545 1545
1549 1551 1552 1553 1554 1554 1555 1556 1556 1557 1557 1557 1556 1556 1555 1554 1554 1553 1552 1552 1551 1551 1550 1550 1549 1549 1549 1549 1548 1548 1548 1548 1548 1549 1548 1547 1547 1547 1547 1546 1546 1546 1545
1549 1551 1552 1554 1554 1555 1556 1556 1557 1557 1558 1558 1557 1557 1556 1556 1555 1554 1553 1553 1553 1552 1551 1551 1551 1550 1550 1550 1550 1550 1550 1549 1549 1549 1549 1548 1548 1548 1547 1547 1546 1546 1545
1549 1551 1552 1554 1554 1555 1556 1557 1557 1558 1558 1558 1558 1558 1558 1557 1556 1555 1555 1554 1554 1553 1552 1552 1552 1551 1551 1551 1550 1550 1550 1550 1550 1550 1549 1549 1549 1548 1548 1547 1547 1546 1545
1548 1550 1552 1553 1554 1555 1556 1557 1558 1558 1559 1559 1559 1559 1558 1558 1557 1557 1556 1555 1555 1554 1553 1553 1553 1552 1552 1552 1551 1551 1551 1550 1550 1550 1550 1549 1549 1549 1548 1548 1547 1546 1545